Location: Beccas
(43.4309°N, 0.1528°E)
Time: 01:19:46
(UTC+00:00)

Cosmos 2227 - Pass Details

Date: 15 October 2021
Orbit: 833 x 862 km, 71.0° (Epoch: 02 December)

Event Time Altitude Azimuth Distance (km) Brightness Sun altitude
Rises 18:58:26 0° 339° (NNW) 3,448 7.8 -19.3°
Reaches altitude 10° 19:01:00 10° 345° (NNW) 2,509 6.9 -19.8°
Maximum altitude 19:06:34 48° 59° (ENE) 1,119 4.5 -20.8°
Enters shadow 19:07:45 42° 94° (E) 1,215 4.5 -21.0°
